Terug naar catalogus

HEAD-3E

ActiefCommunicatieLEO
NORAD 57630·PAYLOAD·🇨🇳 China

Gelanceerd Aug 14, 2023 vanaf Xichang Satellite Launch Center

Loading…

Volgende Passages (komende 24 uur)

TLE

VersSource: Space-Track

Epoch: Sep 14, 2026, 08:34 UTC

1 57630U 23121E   26257.35697101  .00000513  00000-0  12813-3 0  9991
2 57630  45.0021 206.9153 0008534 358.6479   1.4355 14.63981668164958

Volg HEAD-3E in realtime met AllMySat

Download on the App Store